Regional & State Weather Roundups


265 
ASUS43 KMKX 221421
RWRWI 
WISCONSIN REGIONAL WEATHER ROUNDUP
NATIONAL WEATHER SERVICE MILWAUKEE/SULLIVAN WI
900 AM CDT SAT JUL 22 2017
NOTE: "FAIR" INDICATES FEW OR NO CLOUDS BELOW 12,000 FEET WITH NO
SIGNIFICANT WEATHER AND/OR OBSTRUCTIONS TO VISIBILITY.
WIZ001-002-006>008-014>016-023>028-221500-
NORTHWEST WISCONSIN
  
CITY           SKY/WX    TMP DP  RH WIND       PRES   REMARKS
SUPERIOR ARPT  NOT AVBL                                               
ASHLAND        MOSUNNY   70  65  84 SW7       29.84F                  
HAYWARD        MOSUNNY   70  63  78 VRB3      29.86F                  
SIREN          CLOUDY    67  65  93 S5        29.83F                  
CUMBERLAND     CLOUDY    68  63  83 NW10      29.87F                  
RICE LAKE      CLOUDY    70  64  82 NW5       29.88S                  
CHETEK         CLOUDY    71  66  86 CALM      29.86S                  
LADYSMITH      SUNNY     72  65  78 NW3       29.88S                  
EAU CLAIRE     CLOUDY    70  67  90 VRB3      29.84R                  
MENOMONIE      CLOUDY    70  66  87 NW6       29.87R                  
NEW RICHMOND   CLOUDY    73  66  77 N8        29.88R                  
OSCEOLA        CLOUDY    71  65  81 N3        29.89F                  
$$
 
WIZ003>005-009-010-017-018-221500-
NORTH CENTRAL WISCONSIN
  
CITY           SKY/WX    TMP DP  RH WIND       PRES   REMARKS
MANITOWISH WTR MOSUNNY   72  68  87 W7        29.86F                  
ARBOR VITAE    MOSUNNY   72  67  83 W7        29.87S                  
WOODRUFF       MOSUNNY   72  67  83 W7        29.87S                  
RHINELANDER    CLOUDY    70  66  87 SW6       29.89R                  
EAGLE RIVER    CLOUDY    69  62  80 W5        29.87R                  
LAND O LAKES   CLOUDY    70  65  82 SW3       29.89R                  
PHILLIPS       CLOUDY    69  67  91 W3        29.87F                  
TOMAHAWK         N/A     68  65  90 W3        29.89R                  
MEDFORD        CLOUDY    68  66  92 NW3       29.88R                  
MERRILL        CLOUDY    68  68  99 CALM      29.88S FOG              
$$
 
WIZ029-030-035-036-043>047-221500-
CENTRAL WISCONSIN
  
CITY           SKY/WX    TMP DP  RH WIND       PRES   REMARKS
WAUSAU         CLOUDY    70  67  90 W6        29.85R                  
MOSINEE        FOG       66  66 100 NE3       29.88R VSB 3/4          
MARSHFIELD     CLOUDY    71  67  87 NE5       29.86R                  
STEVENS POINT  CLOUDY    65  65 100 CALM      29.86F FOG              
WAUPACA        CLOUDY    71  65  80 NE5       29.85S                  
WAUTOMA        CLOUDY    67  65  93 N6        29.85R FOG              
WISC RAPIDS    CLOUDY    68  67  96 NE5       29.87R FOG              
CAMP DOUGLAS   CLOUDY    68  68 100 N6        29.85R                  
$$
 
WIZ011>013-019>022-031-037>040-048>050-221500-
NORTHEAST WISCONSIN
  
CITY           SKY/WX    TMP DP  RH WIND       PRES   REMARKS
ANTIGO         CLOUDY    68  65  89 W3        29.88S                  
SHAWANO        CLOUDY    70  61  72 CALM      29.85S                  
OCONTO         CLOUDY    72  65  78 CALM      29.83F                  
STURGEON BAY     N/A     70  65  84 CALM      29.85S                  
GREEN BAY      CLOUDY    72  66  81 E3        29.85R                  
MANITOWOC      CLOUDY    71  64  78 E5        29.84R                  
APPLETON       CLOUDY    70  61  73 CALM      29.84R                  
CLINTONVILLE   CLOUDY    70  59  68 CALM      29.85F                  
OSHKOSH        CLOUDY    68  64  87 NW5       29.84R                  
$$
 
WIZ032>034-041-042-053>061-221500-
SOUTHWEST WISCONSIN
  
CITY           SKY/WX    TMP DP  RH WIND       PRES   REMARKS
LA CROSSE      CLOUDY    74  71  91 NE6       29.82R                  
SPARTA         CLOUDY    67  66  96 NE3       29.85S                  
VIROQUA          N/A     69  69 100 CALM      29.87R                  
BOSCOBEL       CLOUDY    74  71  91 W3        29.85R                  
PRAIRIE DU CHI CLOUDY    72  70  95 S3        29.84R                  
PLATTEVILLE    PTSUNNY   72  72  99 SW10      29.85R                  
$$
WIZ056-057-062-063-064-067-068-221500-
SOUTH CENTRAL WISCONSIN
  
CITY           SKY/WX    TMP DP  RH WIND       PRES   REMARKS
REEDSBURG      CLOUDY    69  69 100 NW5       29.84R FOG              
BARABOO/DELLS  FOG       68  67  96 N3        29.84S VSB 3/4          
LONE ROCK      CLOUDY    72  69  90 CALM      29.82R                  
MINERAL POINT  MOSUNNY   72  72 100 SW7       29.84R                  
MADISON        CLOUDY    73  69  87 W5        29.82R                  
MIDDLETON      CLOUDY    73  73 100 W3        29.83S                  
WATERTOWN      CLOUDY    71  71 100 NW6       29.82R                  
MONROE         CLOUDY    72  68  88 SW7       29.83S                  
JANESVILLE     PTSUNNY   72  72 100 VRB6      29.80R                  
$$
 
WIZ051-052-058>065-066-070>072-221500-
SOUTHEAST WISCONSIN
  
CITY           SKY/WX    TMP DP  RH WIND       PRES   REMARKS
MILWAUKEE      CLOUDY    74  69  85 NW8       29.80R                  
WAUKESHA       PTSUNNY   70  66  88 W12       29.83R                  
MILWAUKEE/TIMM CLOUDY    72  66  83 N3        29.81S                  
RACINE         CLOUDY    74  70  87 W7        29.82R                  
KENOSHA        CLOUDY    73  69  87 NW6       29.81R                  
FOND DU LAC    CLOUDY    68  64  87 N3        29.85R FOG              
SHEBOYGAN      CLOUDY    70  69  97 N5        29.82R FOG              
WEST BEND      CLOUDY    66  66 100 N5        29.83R FOG              
JUNEAU         CLOUDY    65  65  99 N5        29.84R FOG              
$$
LSZ147-162-221500-
LAKE SUPERIOR
  
STATION/POSITION TIME  TEMP    WIND        PRES    WAVE
                       AIR SEA DIR/SP/G            HT/PER
                 (UTC) (F)     (DEG/KT/KT) (MB)    (FT/S)
W MID LAKE BUOY  1350   49 47   30/  8/ 10 1010.5R   2/ 4
DEVILS ISLAND    1400   58     330/  7/  7 1010.4R
SAXON HARBOR     1330   66      20/  4/  4 1010.2R
$$
 
LMZ867-665-643>646-221500-
LAKE MICHIGAN
  
STATION/POSITION TIME  TEMP    WIND        PRES    WAVE
                       AIR SEA DIR/SP/G            HT/PER
                 (UTC) (F)     (DEG/KT/KT) (MB)    (FT/S)
CHAMBERS ISLAND  1340   70      CALM  /  2 1010.2R
S GREEN BAY BUOY 1400   70 73   40/  4/  6 1010.1
N MID LAKE BUOY  1350   68 66  350/  2/  2 1010.9F   1/ 4
NORTHPORT PIER   1340   69     110/  6/  7 1010.5S
KEWAUNEE LAKESHO 1354   71      20/  2/  4 1009.6R
SHEBOYGAN LAKESH 1400   67     350/  6/  7 1009.2R
PORT WASHINGTON  1330   69     360/  1/  4 1010.2S
ATWATER BUOY     1309   68 68  360/  6/  6 1009.2R
MILWAUKEE LAKESH 1400   71      20/  2/  4   N/A
S MID LAKE BUOY  1350   71 70  340/  6/  8 1009.0R   2/ 5
KENOSHA   LAKESH 1400   73     320/  5/  7 1009.1
$$
TC  - TEMPERATURE IN CELSIUS
VSB - VISIBILITY IN STATUTE MILES
WCI - WIND CHILL INDEX
HX  - HEAT INDEX